Regional Weather Roundup
Issued by NWS

Home | Current Version | Previous Version | Graphics & Text | Print | Product List | Glossary On
Versions: 1 2 3 4 5 6 7 8 9 10 11 12 13 14 15 16 17 18 19 20 21 22 23 24 25 26 27 28 29 30 31 32 33 34 35 36 37 38 39 40 41 42 43 44 45 46 47 48 49 50
000
ASUS45 KSLC 220110
RWRUT

UTAH REGIONAL WEATHER ROUNDUP
NATIONAL WEATHER SERVICE SALT LAKE CITY UT
700 PM MDT THU AUG 21 2014

UTZ001>011-023>025-220200-

NORTHERN UTAH

CITY           SKY/WX    TMP DP  RH WIND       PRES   REMARKS
HILL AFB       CLOUDY    75  48  39 S8        30.05F
LOGAN          PTSUNNY   72  56  57 NW6       30.04S
OGDEN          PTSUNNY   79  44  28 VRB3      30.03S
PROVO AIRPORT  MOSUNNY   75  52  43 W12       30.04
SALT LAKE CITY PTSUNNY   78  43  28 SE8       30.00F
VERNAL         PTSUNNY   72  48  42 N13       30.11R
WENDOVER       MOSUNNY   84  39  20 SE10      29.95F
HEBER CITY     PTSUNNY   72  45  37 N7        30.10F
WEST JORDAN    SUNNY     75  52  43 S5        30.05S

$$

UTZ012>022-026-027-220200-

SOUTHERN UTAH

CITY           SKY/WX    TMP DP  RH WIND       PRES   REMARKS
BRYCE CANYON   CLOUDY    58  47  66 N9        30.29F
CEDAR CITY     CLOUDY    67  46  47 W10       30.15R
MILFORD        MOSUNNY   80  40  23 S12       30.07F
MOAB/CYNLANDS  SUNNY     81  40  23 VRB5      30.03F
PRICE          MOSUNNY   74  45  35 NE7       30.13S
ST GEORGE      MOCLDY    82  52  34 SW14G20   30.01S
KANAB          PTSUNNY   66  52  59 S15       30.19R

$$

REGIONAL REPORTS     COLORADO/ARIZONA

CITY           SKY/WX    TMP DP  RH WIND       PRES   REMARKS
CRAIG, CO      PTSUNNY   73  45  36 NW14      30.19R
GRAND JUNCTION CLOUDY    77  43  29 W3        30.08S
RIFLE          CLOUDY    76  35  22 W8        30.13S
MONTROSE       CLOUDY    76  44  32 SE3       30.17R
CORTEZ         PTSUNNY   76  34  21 W8        30.16S
PAGE, AZ       PTSUNNY   84  38  19 NW7       30.05R
GRAND CANYON     N/A    N/A N/A N/A MISG        N/A
KINGMAN        PTSUNNY   74  61  63 N13       30.06S
FLAGSTAFF      CLOUDY    55  52  89 CALM      30.30S

$$

REGIONAL REPORTS    NEVADA/IDAHO/WYOMING

CITY           SKY/WX    TMP DP  RH WIND       PRES   REMARKS
LAS VEGAS, NV  PTSUNNY   81  49  32 S10       29.93F
ELY            MOSUNNY   78  32  18 S8        30.10S
ELKO           MOSUNNY   84  28  13 W20G28    29.97S
POCATELLO, ID  PTSUNNY   75  50  41 S12       30.02S
BURLEY         LGT RAIN  65  50  58 W7G28     30.02R
EVANSTON, WY   PTSUNNY   68  39  34 W13       30.21S
ROCK SPRINGS   CLOUDY    60  50  69 SE13      30.22F

$$



USA.gov is the U.S. government's official web portal to all federal, state and local government web resources and services.